Flag for Canada Weather past 2 weeks in Québec, Quebec, Canada

Now
75 °F

Passing clouds.


Feels Like: 78 °F
Forecast: 54 / 77 °F
Wind: 8 mph from East

Location: Quebec Weather Station

Current Time: Aug 23, 2014 at 2:21:06 PM

Latest Report: Aug 23, 2014 at 2:00 PM


Visibility: 30 mi

Pressure: 30.15 "Hg

Humidity: 54%

Dew point: 57 °F

Location of QuébecLocation

Historic Weather in Québec — Graph

°F

Québec temperature yesterday

Maximum temperature yesterday: 75 °F (at 4:00 PM)
Minimum temperature yesterday: 61 °F (at 5:00 AM)
Average temperature yesterday: 67 °F

Past Weeks' High & Low Weather Summary

 TemperatureHumidityPressure
High84 °F (Aug 11, 5:00 PM)100% (Aug 8, 11:00 PM)30.19 "Hg (Aug 8, 11:00 PM)
Low48 °F (Aug 15, 4:00 AM)48% (Aug 8, 1:00 PM)29.67 "Hg (Aug 14, 7:00 AM)
Average65 °F80%29.96 "Hg
* Reported Aug 8 1:00 PM — Aug 23 1:00 PM, Québec, Weather by CustomWeather, © 2014

Note: Actual official high and low records may vary slightly from our data, if they occured in-between our weather recording intervals... More about our weather records

Advertising

Québec weather history for previous 24 hours

 ConditionsComfort  
Time TempWeatherWind HumidityBarometerVisibility
1:00 PM
Aug 23
75 °FPassing clouds.5 mph57%30.16 "Hg30 mi
12:00 PM73 °FPassing clouds.7 mph57%30.17 "Hg30 mi
11:00 AM72 °FPassing clouds.3 mph65%30.19 "Hg30 mi
10:00 AM68 °FPassing clouds.6 mph69%30.19 "Hg30 mi
9:00 AM66 °FPassing clouds.3 mph73%30.19 "Hg30 mi
8:00 AM63 °FPassing clouds.5 mph77%30.19 "Hg30 mi
7:00 AM59 °FSunny.5 mph88%30.19 "Hg30 mi
6:00 AM57 °FPassing clouds.5 mph88%30.17 "Hg30 mi
5:00 AM57 °FPassing clouds.2 mph94%30.16 "Hg15 mi
4:00 AM57 °FClear.5 mph94%30.16 "Hg15 mi
3:00 AM57 °FClear.3 mph94%30.16 "Hg15 mi
2:00 AM59 °FPassing clouds.2 mph88%30.16 "Hg15 mi
1:00 AM63 °FPassing clouds.6 mph83%30.16 "Hg15 mi
12:00 AM64 °FPassing clouds.8 mph78%30.16 "Hg15 mi
11:00 PM
Aug 22
64 °FPassing clouds.2 mph83%30.16 "Hg15 mi
10:00 PM66 °FPassing clouds.8 mph78%30.16 "Hg15 mi
9:00 PM68 °FPassing clouds.7 mph73%30.16 "Hg15 mi
8:00 PM68 °FPassing clouds.10 mph73%30.16 "Hg25 mi
7:00 PM70 °FPassing clouds.9 mph69%30.15 "Hg30 mi
6:00 PM72 °FPassing clouds.13 mph65%30.14 "Hg30 mi
5:00 PM73 °FPassing clouds.12 mph65%30.13 "Hg30 mi
4:00 PM75 °FPartly sunny.10 mph65%30.13 "Hg30 mi
3:00 PM73 °FScattered clouds.9 mph65%30.14 "Hg30 mi
2:00 PM73 °FBroken clouds.14 mph65%30.15 "Hg25 mi
Weather by CustomWeather, © 2014

See weather overviewHow to use our weather pages